FW8536 Weather Reports


Display with metric or nautical units.
time (UTC)temp
F
wind
direction
speed
MPH
gust
MPH
rain 1hr
in
rain 24hr
in
rain mn
in
humidity
%
barometer
mb
20260508104001 45 360 12.0 18.0 0.00 0.00 0.00 67 995.8
20260508103600 46 360 13.0 18.0 0.00 0.00 0.00 67 995.7
20260508103100 46 360 13.0 20.0 0.00 0.00 0.00 66 995.6
20260508102558 47 360 15.0 22.0 0.00 0.00 0.00 65 995.5
20260508102058 47 360 15.0 22.0 0.00 0.00 0.00 66 995.6
20260508101558 47 360 14.0 22.0 0.00 0.00 0.00 67 995.4
20260508101056 47 360 16.0 22.0 0.00 0.00 0.00 66 995.2
20260508100554 47 360 17.0 22.0 0.00 0.00 0.00 66 995.2
20260508100108 48 360 15.0 23.0 0.00 0.00 0.00 65 995.2
20260508095554 48 360 17.0 23.0 0.00 0.00 0.00 65 995.0
20260508095054 48 360 16.0 23.0 0.00 0.00 0.00 65 995.0
20260508094052 49 360 18.0 23.0 0.00 0.00 0.00 64 994.9
20260508093551 49 360 17.0 23.0 0.00 0.00 0.00 63 994.9
20260508093050 50 360 17.0 23.0 0.00 0.00 0.00 63 994.7
20260508092553 50 360 15.0 22.0 0.00 0.00 0.00 63 994.8
20260508092050 50 360 15.0 21.0 0.00 0.00 0.00 63 994.7
20260508091557 50 360 15.0 21.0 0.00 0.00 0.00 63 994.6
20260508091048 50 360 14.0 20.0 0.00 0.00 0.00 64 994.7
20260508090547 50 360 15.0 20.0 0.00 0.00 0.00 65 994.5
20260508090108 50 360 14.0 20.0 0.00 0.00 0.00 65 994.6
20260508085546 50 360 15.0 19.0 0.00 0.00 0.00 65 994.4
20260508085048 49 360 13.0 19.0 0.00 0.00 0.00 66 994.2
20260508084047 49 360 10.0 14.0 0.00 0.00 0.00 67 994.5
20260508083547 49 360 11.0 14.0 0.00 0.00 0.00 66 994.4
20260508083046 50 360 10.0 15.0 0.00 0.00 0.00 66 994.2
20260508082550 50 360 11.0 16.0 0.00 0.00 0.00 65 994.4
20260508082046 50 360 12.0 16.0 0.00 0.00 0.00 65 994.4
20260508081600 50 360 13.0 16.0 0.00 0.00 0.00 67 994.4
20260508081045 49 360 11.0 14.0 0.00 0.00 0.00 67 994.5
20260508080548 49 360 10.0 14.0 0.00 0.00 0.00 67 994.4
20260508080044 50 360 11.0 15.0 0.00 0.00 0.00 66 994.5
20260508075546 50 360 12.0 18.0 0.00 0.00 0.00 66 994.6
20260508075043 50 360 13.0 16.0 0.00 0.00 0.00 66 994.7
20260508074045 50 360 13.0 16.0 0.00 0.00 0.00 66 994.5
20260508073543 50 360 12.0 16.0 0.00 0.00 0.00 65 994.7
20260508073101 50 360 12.0 18.0 0.00 0.00 0.00 64 994.7
20260508072542 50 360 13.0 18.0 0.00 0.00 0.00 64 994.8
20260508072041 50 360 12.0 16.0 0.00 0.00 0.00 64 994.7
20260508071544 50 360 12.0 16.0 0.00 0.00 0.00 64 994.7
20260508071042 50 360 12.0 14.0 0.00 0.00 0.00 63 994.9
20260508070540 49 360 11.0 14.0 0.00 0.00 0.00 62 994.8
20260508070046 50 360 10.0 15.0 0.00 0.00 0.00 60 994.8
20260508065539 51 360 11.0 16.0 0.00 0.00 0.00 59 994.9
20260508065037 51 360 13.0 18.0 0.00 0.00 0.00 59 995.0
20260508064038 50 360 11.0 15.0 0.00 0.00 0.00 58 995.0
20260508063536 49 360 11.0 14.0 0.00 0.00 0.00 57 995.0
20260508063038 50 360 10.0 14.0 0.00 0.00 0.00 55 995.0
20260508062534 50 360 10.0 13.0 0.00 0.00 0.00 54 995.1
20260508062033 51 360 10.0 16.0 0.00 0.00 0.00 53 995.1
20260508061540 51 360 10.0 16.0 0.00 0.00 0.00 52 995.1
20260508061033 51 360 12.0 15.0 0.00 0.00 0.00 51 995.1
20260508060536 51 360 12.0 15.0 0.00 0.00 0.00 51 995.2
20260508060033 50 360 12.0 14.0 0.00 0.00 0.00 50 995.4
20260508055530 49 360 10.0 13.0 0.00 0.00 0.00 51 995.3
20260508055029 48 360 9.0 11.0 0.00 0.00 0.00 50 995.5
20260508054030 49 360 7.0 11.0 0.00 0.00 0.00 48 995.5
20260508053529 48 360 8.0 11.0 0.00 0.00 0.00 48 995.5
20260508053034 48 360 8.0 11.0 0.00 0.00 0.00 49 995.6
20260508052532 48 360 8.0 10.0 0.00 0.00 0.00 48 995.5
20260508052029 48 360 8.0 11.0 0.00 0.00 0.00 47 995.6
20260508051527 49 360 8.0 11.0 0.00 0.00 0.00 47 995.8
20260508051030 49 360 8.0 11.0 0.00 0.00 0.00 47 995.7
20260508050526 48 360 8.0 11.0 0.00 0.00 0.00 48 995.8
20260508050025 49 360 6.0 9.0 0.00 0.00 0.00 46 995.7
20260508045524 50 360 7.0 10.0 0.00 0.00 0.00 45 995.6
20260508045022 51 360 7.0 10.0 0.00 0.00 0.00 44 995.7
20260508044022 51 360 7.0 10.0 0.00 0.00 0.00 42 995.8
20260508043522 52 360 6.0 8.0 0.00 0.00 0.00 41 995.8
20260508043022 52 360 6.0 8.0 0.00 0.00 0.00 40 995.8
20260508042523 52 360 5.0 6.0 0.00 0.00 0.00 40 995.8
20260508042022 52 360 5.0 6.0 0.00 0.00 0.00 40 995.7
20260508041523 52 360 4.0 6.0 0.00 0.00 0.00 40 995.8
20260508041022 52 360 4.0 7.0 0.00 0.00 0.00 40 995.8
20260508040521 52 360 5.0 7.0 0.00 0.00 0.00 41 995.8
20260508040022 52 360 6.0 7.0 0.00 0.00 0.00 41 995.7
20260508035522 52 360 6.0 7.0 0.00 0.00 0.00 41 995.8
20260508035022 52 360 6.0 7.0 0.00 0.00 0.00 41 995.9
20260508034021 53 360 6.0 8.0 0.00 0.00 0.00 39 996.0
20260508033525 53 360 6.0 8.0 0.00 0.00 0.00 40 996.1
20260508033022 51 360 6.0 7.0 0.00 0.00 0.00 42 996.0
20260508032526 52 360 5.0 6.0 0.00 0.00 0.00 41 996.1
20260508032121 52 360 5.0 7.0 0.00 0.00 0.00 40 995.9
20260508031521 52 360 5.0 7.0 0.00 0.00 0.00 41 995.9
20260508031022 51 360 6.0 8.0 0.00 0.00 0.00 41 995.9
20260508030522 51 360 7.0 9.0 0.00 0.00 0.00 42 995.9
20260508030021 50 360 6.0 8.0 0.00 0.00 0.00 44 996.1
20260508025521 50 360 6.0 9.0 0.00 0.00 0.00 44 996.0
20260508025021 50 360 7.0 10.0 0.00 0.00 0.00 43 995.8
20260508024019 52 360 7.0 9.0 0.00 0.00 0.00 41 995.9
20260508023517 53 360 7.0 9.0 0.00 0.00 0.00 41 995.8
20260508023015 53 360 6.0 8.0 0.00 0.00 0.00 40 995.8
20260508022518 54 360 7.0 8.0 0.00 0.00 0.00 40 995.9
20260508022113 54 360 6.0 7.0 0.00 0.00 0.00 39 995.7
20260508021511 55 360 5.0 7.0 0.00 0.00 0.00 38 995.6
20260508021010 56 360 4.0 6.0 0.00 0.00 0.00 37 995.5
20260508020510 56 360 5.0 6.0 0.00 0.00 0.00 36 995.6
20260508020008 58 293 5.0 6.0 0.00 0.00 0.00 34 995.6
20260508015506 59 293 5.0 6.0 0.00 0.00 0.00 33 995.6
20260508015005 60 293 4.0 6.0 0.00 0.00 0.00 32 995.5
20260508014004 61 293 4.0 7.0 0.00 0.00 0.00 32 995.7
20260508013502 61 293 5.0 7.0 0.00 0.00 0.00 31 995.6
20260508013002 62 293 6.0 9.0 0.00 0.00 0.00 31 995.7
20260508012600 62 293 7.0 10.0 0.00 0.00 0.00 29 995.7
20260508012059 63 290 8.0 11.0 0.00 0.00 0.00 29 995.7
20260508011606 63 286 8.0 14.0 0.00 0.00 0.00 28 995.6
20260508011058 63 294 11.0 14.0 0.00 0.00 0.00 28 995.7
20260508010558 64 279 9.0 14.0 0.00 0.00 0.00 28 995.7
20260508010058 64 280 11.0 16.0 0.00 0.00 0.00 28 995.7
20260508005559 64 300 12.0 16.0 0.00 0.00 0.00 27 995.7
20260508005058 64 296 7.0 12.0 0.00 0.00 0.00 28 995.7
20260508004058 64 299 11.0 16.0 0.00 0.00 0.00 28 995.7
20260508003557 63 298 11.0 16.0 0.00 0.00 0.00 28 995.6
20260508003057 64 296 13.0 20.0 0.00 0.00 0.00 27 995.7
20260508002557 65 273 13.0 20.0 0.00 0.00 0.00 27 995.6
20260508002056 65 275 13.0 21.0 0.00 0.00 0.00 27 995.6
20260508001557 65 294 13.0 21.0 0.00 0.00 0.00 26 995.6
20260508001056 65 292 9.0 18.0 0.00 0.00 0.00 26 995.5
20260508000556 65 297 11.0 16.0 0.00 0.00 0.00 26 995.5
20260508000057 66 275 12.0 16.0 0.00 0.00 0.00 25 995.5
20260507235555 66 282 10.0 13.0 0.00 0.00 0.00 24 995.5
20260507235054 66 360 7.0 11.0 0.00 0.00 0.00 23 995.5
20260507234053 66 311 10.0 13.0 0.00 0.00 0.00 23 995.4
20260507233553 66 337 9.0 14.0 0.00 0.00 0.00 23 995.4
20260507233058 65 343 7.0 16.0 0.00 0.00 0.00 24 995.4
20260507232553 65 330 7.0 16.0 0.00 0.00 0.00 23 995.4
20260507232055 65 340 9.0 15.0 0.00 0.00 0.00 23 995.5
20260507231552 65 360 10.0 15.0 0.00 0.00 0.00 22 995.4
20260507231052 65 321 11.0 22.0 0.00 0.00 0.00 23 995.5
20260507230555 66 341 15.0 22.0 0.00 0.00 0.00 22 995.5
20260507230106 66 9 10.0 14.0 0.00 0.00 0.00 23 995.5
20260507225550 66 331 7.0 15.0 0.00 0.00 0.00 23 995.4
20260507225051 66 342 12.0 16.0 0.00 0.00 0.00 22 995.5
20260507224054 66 297 10.0 20.0 0.00 0.00 0.00 24 995.5
20260507223549 65 320 10.0 20.0 0.00 0.00 0.00 22 995.5
20260507223048 65 319 10.0 15.0 0.00 0.00 0.00 24 995.5
20260507222547 65 315 10.0 15.0 0.00 0.00 0.00 23 995.5
20260507222047 65 284 11.0 15.0 0.00 0.00 0.00 23 995.5
20260507221548 65 5 10.0 16.0 0.00 0.00 0.00 23 995.5
20260507221048 65 337 9.0 18.0 0.00 0.00 0.00 23 995.6
20260507220546 65 292 11.0 18.0 0.00 0.00 0.00 23 995.7
20260507220053 64 313 9.0 16.0 0.00 0.00 0.00 23 995.7
20260507215545 65 317 10.0 20.0 0.00 0.00 0.00 23 995.9
20260507215044 65 333 11.0 20.0 0.00 0.00 0.00 24 995.9
20260507214045 65 321 9.0 19.0 0.00 0.00 0.00 24 995.9
20260507213544 65 331 12.0 23.0 0.00 0.00 0.00 23 996.0
20260507213045 65 327 10.0 22.0 0.00 0.00 0.00 24 996.2
20260507212542 65 311 14.0 22.0 0.00 0.00 0.00 23 996.3
20260507212042 65 317 14.0 19.0 0.00 0.00 0.00 21 996.4
20260507211543 65 360 14.0 18.0 0.00 0.00 0.00 22 996.4
20260507211039 64 296 10.0 20.0 0.00 0.00 0.00 23 996.5
20260507210539 64 300 14.0 20.0 0.00 0.00 0.00 22 996.5
20260507210041 64 300 13.0 19.0 0.00 0.00 0.00 22 996.6
20260507205539 64 305 11.0 18.0 0.00 0.00 0.00 22 996.6
20260507205038 64 327 8.0 16.0 0.00 0.00 0.00 22 996.5
20260507204137 64 302 6.0 16.0 0.00 0.00 0.00 22 996.6
20260507203536 64 290 11.0 16.0 0.00 0.00 0.00 22 996.6
20260507203104 64 317 8.0 11.0 0.00 0.00 0.00 22 996.7
20260507202537 63 328 5.0 15.0 0.00 0.00 0.00 22 996.7
20260507202036 64 248 11.0 15.0 0.00 0.00 0.00 22 996.8
20260507201534 63 245 10.0 15.0 0.00 0.00 0.00 22 996.7
20260507201033 63 275 2.0 19.0 0.00 0.00 0.00 22 996.7
20260507200536 64 246 12.0 21.0 0.00 0.00 0.00 22 996.7
20260507200034 65 211 8.0 21.0 0.00 0.00 0.00 21 996.8
20260507195539 64 325 7.0 16.0 0.00 0.00 0.00 23 996.7
20260507195032 64 309 11.0 18.0 0.00 0.00 0.00 22 996.8
20260507194033 65 313 13.0 22.0 0.00 0.00 0.00 21 996.9
20260507193531 65 298 9.0 15.0 0.00 0.00 0.00 21 996.8
20260507193033 65 308 4.0 10.0 0.00 0.00 0.00 22 997.0
20260507192529 64 306 5.0 10.0 0.00 0.00 0.00 22 997.0
20260507192029 64 133 4.0 10.0 0.00 0.00 0.00 22 997.0
20260507191532 64 345 4.0 10.0 0.00 0.00 0.00 22 997.2
20260507191027 63 13 1.0 10.0 0.00 0.00 0.00 22 997.2
20260507190526 63 12 6.0 10.0 0.00 0.00 0.00 23 997.2
20260507190025 63 206 6.0 10.0 0.00 0.00 0.00 23 997.2
20260507185524 62 144 6.0 9.0 0.00 0.00 0.00 23 997.3
20260507185023 62 210 5.0 9.0 0.00 0.00 0.00 26 997.4
20260507184023 61 355 7.0 12.0 0.00 0.00 0.00 24 997.6
20260507183522 61 72 3.0 14.0 0.00 0.00 0.00 25 997.7
20260507183022 62 30 9.0 16.0 0.00 0.00 0.00 24 997.7
20260507182521 62 176 9.0 16.0 0.00 0.00 0.00 24 997.6
20260507182019 61 96 5.0 13.0 0.00 0.00 0.00 26 997.8
20260507181519 62 225 6.0 13.0 0.00 0.00 0.00 25 997.9
20260507181020 61 178 7.0 13.0 0.00 0.00 0.00 25 998.0
20260507180519 61 201 8.0 13.0 0.00 0.00 0.00 23 998.0
20260507180021 61 11 8.0 14.0 0.00 0.00 0.00 24 998.0
20260507175515 60 244 8.0 14.0 0.00 0.00 0.00 25 998.2
20260507175017 60 126 7.0 11.0 0.00 0.00 0.00 25 998.1
20260507174017 58 109 5.0 11.0 0.00 0.00 0.00 25 998.1
20260507173514 58 76 5.0 15.0 0.00 0.00 0.00 26 998.3
20260507173031 58 173 5.0 15.0 0.00 0.00 0.00 27 998.2
20260507172513 58 105 7.0 11.0 0.00 0.00 0.00 27 998.2
20260507172012 57 72 8.0 11.0 0.00 0.00 0.00 25 998.2
20260507171521 57 112 4.0 10.0 0.00 0.00 0.00 26 998.5
20260507171014 57 177 6.0 10.0 0.00 0.00 0.00 26 998.6
20260507170512 58 85 7.0 9.0 0.00 0.00 0.00 25 998.5
20260507170010 58 232 1.0 7.0 0.00 0.00 0.00 26 998.5
20260507165509 58 244 4.0 7.0 0.00 0.00 0.00 27 998.6
20260507165008 57 67 1.0 7.0 0.00 0.00 0.00 27 998.6
20260507164609 56 47 4.0 9.0 0.00 0.00 0.00 28 998.7
20260507164008 56 74 3.0 9.0 0.00 0.00 0.00 28 998.6
20260507163512 56 78 4.0 9.0 0.00 0.00 0.00 29 998.7
20260507163009 55 111 4.0 6.0 0.00 0.00 0.00 27 998.7
20260507162515 55 113 2.0 7.0 0.00 0.00 0.00 27 998.8
20260507162008 55 111 2.0 7.0 0.00 0.00 0.00 31 998.9
20260507161508 54 110 4.0 8.0 0.00 0.00 0.00 29 998.9
20260507161007 54 123 4.0 8.0 0.00 0.00 0.00 31 999.0
20260507160507 53 154 3.0 7.0 0.00 0.00 0.00 31 999.0
20260507160009 53 137 4.0 7.0 0.00 0.00 0.00 32 999.0
20260507155514 53 132 4.0 9.0 0.00 0.00 0.00 32 999.0
20260507155009 52 119 3.0 7.0 0.00 0.00 0.00 31 999.0
20260507154009 52 43 1.0 5.0 0.00 0.00 0.00 32 999.1
20260507153505 51 42 1.0 6.0 0.00 0.00 0.00 32 999.1
20260507153006 51 42 2.0 6.0 0.00 0.00 0.00 33 999.1
20260507152508 50 42 2.0 6.0 0.00 0.00 0.00 33 999.2
20260507152008 50 42 2.0 6.0 0.00 0.00 0.00 33 999.1
20260507151504 49 41 1.0 6.0 0.00 0.00 0.00 34 999.1
20260507151005 49 41 3.0 6.0 0.00 0.00 0.00 34 999.1
20260507150505 48 41 4.0 6.0 0.00 0.00 0.00 35 999.1
20260507150004 48 40 1.0 5.0 0.00 0.00 0.00 34 999.1
20260507145503 48 40 1.0 6.0 0.00 0.00 0.00 35 999.1
20260507145007 47 40 2.0 6.0 0.00 0.00 0.00 37 999.1
20260507144006 46 39 3.0 6.0 0.00 0.00 0.00 37 999.0
20260507143507 46 355 1.0 4.0 0.00 0.00 0.00 38 999.1
20260507143005 45 355 0.0 5.0 0.00 0.00 0.00 38 999.2
20260507142505 44 355 2.0 5.0 0.00 0.00 0.00 39 999.2
20260507142007 43 355 2.0 5.0 0.00 0.00 0.00 39 999.2
20260507141504 43 355 0.0 4.0 0.00 0.00 0.00 39 999.2
20260507141004 42 355 1.0 3.0 0.00 0.00 0.00 40 999.3
20260507140505 42 355 1.0 4.0 0.00 0.00 0.00 40 999.2
20260507140004 41 351 0.0 5.0 0.00 0.00 0.00 41 999.2
20260507135503 40 355 1.0 5.0 0.00 0.00 0.00 42 999.2
20260507135004 40 355 2.0 5.0 0.00 0.00 0.00 41 999.3
20260507134002 39 355 2.0 5.0 0.00 0.00 0.00 43 999.3
20260507133502 38 360 2.0 5.0 0.00 0.00 0.00 44 999.1
20260507133002 38 360 3.0 6.0 0.00 0.00 0.00 44 999.2
20260507132503 38 360 3.0 6.0 0.00 0.00 0.00 43 999.1
20260507132002 37 360 3.0 5.0 0.00 0.00 0.00 43 999.2
20260507131501 37 360 4.0 5.0 0.00 0.00 0.00 43 999.2
20260507131002 37 360 4.0 5.0 0.00 0.00 0.00 43 999.2
20260507130503 36 360 4.0 5.0 0.00 0.00 0.00 42 999.3
20260507130001 36 360 2.0 6.0 0.00 0.00 0.00 44 999.3
20260507125502 36 360 4.0 6.0 0.00 0.00 0.00 43 999.1
20260507125000 36 360 3.0 5.0 0.00 0.00 0.00 44 999.1
20260507124002 35 360 2.0 4.0 0.00 0.00 0.00 45 999.1
20260507123502 35 360 1.0 3.0 0.00 0.00 0.00 45 999.1
20260507123002 35 360 2.0 4.0 0.00 0.00 0.00 46 999.1
20260507122501 35 360 1.0 3.0 0.00 0.00 0.00 45 999.0
20260507122101 35 360 2.0 3.0 0.00 0.00 0.00 45 998.9
20260507121603 35 360 1.0 3.0 0.00 0.00 0.00 44 999.0
20260507121101 35 360 1.0 3.0 0.00 0.00 0.00 43 998.9
20260507120600 36 360 2.0 4.0 0.00 0.00 0.00 43 998.8
20260507120105 36 360 2.0 4.0 0.00 0.00 0.00 43 998.8
20260507115600 35 360 3.0 4.0 0.00 0.00 0.00 42 998.8
20260507115101 35 360 2.0 4.0 0.00 0.00 0.00 42 998.8
20260507114702 35 360 3.0 4.0 0.00 0.00 0.00 42 998.8
20260507114101 35 360 3.0 5.0 0.00 0.00 0.00 42 998.7
20260507113600 35 360 3.0 4.0 0.00 0.00 0.00 42 998.6
20260507113100 35 360 2.0 3.0 0.00 0.00 0.00 42 998.7
20260507112600 35 360 3.0 5.0 0.00 0.00 0.00 42 998.7
20260507112102 35 360 4.0 5.0 0.00 0.00 0.00 42 998.7
20260507111607 35 360 4.0 5.0 0.00 0.00 0.00 42 998.7
20260507111059 35 360 4.0 5.0 0.00 0.00 0.00 42 998.7
20260507110559 35 360 4.0 6.0 0.00 0.00 0.00 42 998.6
20260507105558 34 360 5.0 6.0 0.00 0.00 0.00 43 998.6
20260507105101 34 360 5.0 6.0 0.00 0.00 0.00 44 998.7